[[{"header":{"parameterUnit":"m.s-1","parameterCategory":1,"la1":30.2992,"la2":30.254,"lo1":-89.0895,"lo2":-89.0443,"dy":0.0025,"dx":0.0025,"nx":19,"ny":19,"refTime":"2026-04-04T21:00:00:Z","depth":0,"parameterNumber":2,"parameterNumberName":"U-component_of_WINDS"},"data":[0,0,0,-4.2608,-4.2612,-4.2796,-4.2796,-4.3027,-4.3029,0,0,0,0,0,0,0,0,0,0,0,-4.2549,-4.2551,-4.2607,-4.2612,-4.2796,-4.2797,-4.3027,-4.3029,0,0,0,0,0,0,0,0,0,0,0,-4.2549,-4.255,-4.2552,-4.2613,-4.2795,-4.2797,-4.3027,-4.289,0,0,0,0,0,0,0,0,0,0,-4.2712,-4.2654,-4.255,-4.2552,-4.2614,-4.2795,-4.2797,-4.2883,-4.2898,-4.2942,0,-4.2979,0,-4.3008,-4.3045,-4.3045,0,0,0,-4.2615,-4.2641,-4.2694,-4.2552,-4.2615,-4.2795,-4.2714,-4.2892,-4.2909,-4.2962,-4.2982,-4.2991,-4.3012,-4.3046,-4.3047,-4.3286,-4.3287,0,0,-4.2605,-4.258,-4.2682,-4.2705,-4.2675,-4.2708,-4.2719,-4.2902,-4.2923,-4.2983,-4.2996,-4.3015,-4.3048,-4.3049,-4.3286,-4.3287,0,0,0,-4.2574,-4.2573,-4.2622,-4.2695,-4.2729,-4.2713,-4.2726,-4.2915,-4.2932,-4.2999,-4.3018,-4.3049,-4.3052,-4.3285,-4.3286,-4.3309,0,0,0,-4.2568,-4.2555,-4.2617,-4.2604,-4.2725,-4.2824,-4.2735,-4.292,-4.2941,-4.3017,-4.3049,-4.3054,-4.3284,-4.3285,-4.3306,-4.3323,0,0,0,-4.2539,-4.2552,-4.2577,-4.2603,-4.2681,-4.2821,-4.285,-4.2925,-4.2953,-4.3046,-4.3054,-4.3283,-4.3285,-4.3303,-4.3319,-4.3378,0,0,0,-4.2501,-4.2595,-4.2577,-4.269,-4.2679,-4.2834,-4.2849,-4.2966,-4.3048,-4.305,-4.3284,-4.3286,-4.3302,-4.3316,-4.3375,-4.3422,-4.3439,0,0,-4.2606,-4.2607,-4.2675,-4.2664,-4.2816,-4.2808,-4.2965,-4.3063,-4.3095,-4.3221,-4.3228,-4.3307,-4.3319,-4.3377,-4.355,-4.3563,0,0,0,-4.27,-4.2749,-4.2795,-4.2871,-4.2949,-4.3018,-4.3095,-4.3133,-4.3241,-4.3155,-4.3346,-4.3354,-4.3389,-4.3413,-4.3424,-4.3456,-4.3296,-4.3296,-4.3296,-4.2812,-4.2848,-4.2964,-4.3022,-4.3097,-4.3177,-4.3241,-4.3305,-4.3319,-4.3364,-4.3401,-4.3501,-4.3527,-4.3536,-4.3569,-4.343,-4.343,-4.343,-4.343,-4.2968,-4.3042,-4.306,-4.3178,-4.3217,-4.3317,-4.3399,-4.3406,-4.3506,-4.3476,-4.3509,-4.3471,-4.355,-4.3581,-4.3433,-4.3432,-4.3432,-4.3432,-4.3432,-4.3044,-4.3085,-4.3129,-4.3244,-4.333,-4.3387,-4.3482,-4.3514,-4.3545,-4.3578,-4.362,-4.3619,-4.3622,-4.3596,-4.3596,-4.3597,-4.3597,-4.3597,-4.3598,-4.3103,-4.3152,-4.3227,-4.3319,-4.3373,-4.3449,-4.3532,-4.3587,-4.3655,-4.3671,-4.3672,-4.3681,-4.3552,-4.3517,-4.3603,-4.3602,-4.3601,-4.3601,-4.36,-4.3244,-4.3218,-4.3334,-4.3388,-4.3499,-4.3582,-4.3623,-4.3732,-4.3782,-4.3828,-4.3832,-4.3732,-4.3735,-4.3726,-4.3697,-4.3824,-4.3824,-4.3824,-4.3824,-4.3306,-4.3312,-4.3438,-4.3522,-4.3609,-4.3658,-4.379,-4.3856,-4.3921,-4.3955,-4.3942,-4.3908,-4.3897,-4.3907,-4.3894,-4.3868,-4.4035,-4.4036,-4.4036,-4.3395,-4.341,-4.3514,-4.3577,-4.3667,-4.3743,-4.3868,-4.3965,-4.4034,-4.4045,-4.3982,-4.3973,-4.3918,-4.3899,-4.3905,-4.3884,-4.3837,0,0]},{"header":{"parameterUnit":"m.s-1","parameterCategory":1,"la1":30.2992,"la2":30.254,"lo1":-89.0895,"lo2":-89.0443,"dy":0.0025,"dx":0.0025,"nx":19,"ny":19,"refTime":"2026-04-04T21:00:00:Z","depth":0,"parameterNumber":3,"parameterNumberName":"V-component_of_WINDS"},"data":[0,0,0,2.9911,2.9912,2.9977,2.9977,3.004,3.004,0,0,0,0,0,0,0,0,0,0,0,2.9881,2.9881,2.9911,2.9912,2.9977,2.9977,3.0039,3.004,0,0,0,0,0,0,0,0,0,0,0,2.9881,2.9881,2.9881,2.9912,2.9977,2.9977,3.0039,2.9997,0,0,0,0,0,0,0,0,0,0,2.9938,2.99,2.9881,2.9881,2.9913,2.9977,2.9977,2.9996,3.0,3.0002,0,3.0002,0,3.0022,3.0043,3.0043,0,0,0,2.992,2.9896,2.9924,2.9881,2.9913,2.9976,2.995,2.9998,3.0003,3.0008,3.0003,3.0006,3.0023,3.0043,3.0044,3.0036,3.0035,0,0,2.9916,2.9886,2.992,2.9926,2.9917,2.9948,2.9952,3.0002,2.9994,3.0004,3.0008,3.0024,3.0044,3.0044,3.0036,3.0035,0,0,0,2.9901,2.9883,2.991,2.9923,2.9937,2.9949,2.9954,2.9992,3.0003,3.0009,3.0025,3.0044,3.0044,3.0036,3.0036,2.999,0,0,0,2.9899,2.9874,2.9908,2.989,2.9935,2.9965,2.9943,3.0,3.0007,3.0025,3.0044,3.0045,3.0037,3.0036,2.9992,2.9973,0,0,0,2.988,2.9872,2.9878,2.9888,2.9916,2.9965,2.998,3.0002,3.0016,3.0043,3.0045,3.0037,3.0036,2.9994,2.9976,2.9963,0,0,0,2.9851,2.9834,2.9877,2.9864,2.9915,2.9936,2.998,2.9997,3.0015,3.0044,3.0037,3.0036,2.9995,2.9978,2.9965,2.9948,2.9938,0,0,2.9813,2.9828,2.9823,2.9864,2.987,2.9929,2.9929,2.9972,3.0,3.0022,3.0022,2.9991,2.9976,2.9964,2.989,2.9881,0,0,0,2.9801,2.9797,2.9805,2.9822,2.9856,2.9884,2.9931,2.9947,2.9968,3.0006,2.9983,2.9975,2.9969,2.9963,2.9956,2.9953,3.0031,3.0031,3.0031,2.9703,2.9743,2.9738,2.9786,2.9801,2.9851,2.9867,2.9898,2.9931,2.9925,2.9932,2.9882,2.9873,2.9868,2.9865,2.9925,2.9925,2.9925,2.9925,2.9652,2.9654,2.9701,2.9713,2.9755,2.9765,2.9812,2.9835,2.985,2.988,2.9876,2.9906,2.9858,2.9857,2.9921,2.9922,2.9922,2.9923,2.9923,2.9594,2.9602,2.9624,2.9654,2.9672,2.972,2.9733,2.977,2.9804,2.98,2.9813,2.9814,2.982,2.9803,2.9803,2.9803,2.9803,2.9803,2.9803,2.9526,2.9552,2.956,2.9596,2.9613,2.9639,2.9689,2.9706,2.9734,2.9759,2.976,2.9794,2.9846,2.9859,2.98,2.9801,2.9801,2.9801,2.9801,2.9462,2.9483,2.9494,2.9511,2.9558,2.9574,2.9621,2.9652,2.9671,2.9676,2.9712,2.9744,2.9762,2.9768,2.9779,2.9703,2.9703,2.9703,2.9703,2.9414,2.9427,2.9449,2.9474,2.9502,2.9546,2.9557,2.9596,2.9639,2.9653,2.9669,2.9687,2.9691,2.9706,2.9714,2.9725,2.9637,2.9637,2.9637,2.9377,2.9395,2.9399,2.9444,2.9483,2.9515,2.9528,2.9553,2.9606,2.9635,2.9666,2.9668,2.9697,2.9704,2.9734,2.9744,2.9765,0,0]}]]